Location: Daybis Observatory
(33.4273°N, 88.8061°W)
Time: 13:53:25
(UTC-05:00)

Daily predictions for brighter satellites

Satellite Brightness Start Highest point End
(mag) Time Altitude Azimuth Time Altitude Azimuth Time Altitude Azimuth
Cosmos 2278 Rocket 4.2 18:53:17 10° NW 18:58:21 35° WSW 19:03:25 10° SSW
NOSS 3-2 (C) 4.4 18:52:45 10° SW 18:58:35 53° NW 19:04:56 10° NNE
Atlas Centaur 2 4.3 18:54:21 10° W 19:01:55 39° SSW 19:09:36 10° SE
Milstar 3 4.2 18:57:34 10° W 19:06:06 68° S 19:22:33 10° ESE
Timation 1 Rocket 4.4 19:01:51 10° NNW 19:07:50 86° ENE 19:13:49 10° SSE
Cosmos 1408 Rocket 3.7 19:03:58 10° N 19:08:09 48° E 19:12:18 10° SSE
Cosmos 1464 Rocket 4.0 19:02:02 10° S 19:08:16 79° E 19:14:27 10° N
Cosmos 2034 Rocket 4.1 19:03:05 10° S 19:09:11 58° E 19:15:23 10° NNE
OAO 3 Rocket 3.2 19:04:40 10° W 19:09:23 80° N 19:14:10 10° E
Cosmos 2297 4.3 19:03:54 10° NNW 19:09:29 63° WSW 19:15:00 10° S
Cosmos 1805 3.3 19:06:03 10° S 19:09:51 54° E 19:13:43 10° NNE
SKYMED 2 3.9 19:06:34 10° N 19:10:54 71° WNW 19:15:12 10° SSW
Cosmos 1943 3.8 19:06:24 10° SSE 19:11:20 33° ESE 19:16:17 10° NE
Cosmos 2369 Rocket 3.7 19:09:32 10° NNE 19:13:17 18° ENE 19:16:54 10° E
FREGAT/IRIS 3.8 19:11:04 10° SE 19:13:37 24° ENE 19:16:12 10° NNE
Spot 2 Rocket 4.4 19:11:04 10° SE 19:15:15 27° ENE 19:19:26 10° NNE
CZ-2C R/B 4.1 19:12:15 10° SSW 19:16:50 38° W 19:21:17 10° NNW
Cosmos 1048 Rocket 4.1 19:13:52 10° S 19:19:03 57° ESE 19:24:11 10° NNE
Cosmos 1603 3.9 19:13:49 10° SSW 19:19:32 82° WNW 19:25:19 10° NNE
Cosmos 1733 4.4 19:21:04 10° SE 19:24:07 22° E 19:27:09 10° NE
BREEZE-M DEB (TANK) 4.5 19:20:20 10° WNW 19:24:12 68° SW 19:38:04 10° SE
Cosmos 158 Rocket 4.4 19:20:10 10° SSE 19:24:33 34° E 19:28:56 10° NE
Delta 168 4.3 19:22:39 10° WSW 19:26:03 29° S 19:30:07 12° ESE
Gbstr 26 Del rocket 3.2 19:22:16 10° SW 19:26:23 75° NW 19:31:23 10° NE
Cosmos 1269 Rocket 4.0 19:21:44 10° SSW 19:27:00 82° ESE 19:32:18 10° NNE
In-Cosmos 22 4.2 19:23:43 10° N 19:29:30 81° E 19:35:12 10° S
Cosmos 1174 4.1 19:24:28 10° SSW 19:29:33 62° ESE 19:33:35 10° NE
Cosmos 1953 2.4 19:25:40 10° S 19:29:38 78° W 19:33:37 10° N
Spot 1 4.5 19:29:12 10° SE 19:33:40 45° ENE 19:37:54 10° N
Cosmos 1674 3.6 19:30:46 10° NNE 19:34:09 28° E 19:36:55 13° SE
USA 215 3.4 19:28:27 10° NE 19:34:51 56° SE 19:41:13 10° SSW
Cosmos 1470 3.1 19:32:45 10° SSE 19:36:24 40° E 19:40:03 10° NNE
Helios 1B rocket 2.5 19:34:00 10° NNE 19:38:01 52° E 19:42:02 10° S
ASTRO E2 3.9 19:35:18 10° W 19:39:01 35° SSW 19:41:49 15° SE
OAO 1 Rocket 4.5 19:34:08 10° W 19:39:31 79° N 19:43:07 21° E
Cosmos 1743 Rocket 3.7 19:35:30 10° N 19:39:48 51° E 19:44:03 10° SSE
Resurs 1-3 4.2 19:36:45 10° SE 19:40:37 34° ENE 19:44:35 10° N
ATLAS 5 CENTAUR R/B 4.3 19:37:23 10° W 19:40:57 20° NW 19:44:43 10° N
Cosmos 1544 3.3 19:40:16 10° S 19:43:59 75° W 19:47:44 10° N
SAR-Lupe-4 4.0 19:40:31 10° S 19:44:02 63° WSW 19:47:36 10° NNW
Meteosat 1 Rocket2 4.4 19:42:22 10° WSW 19:50:22 52° S 19:53:33 25° ESE
Resurs 01 Rocket 1.6 19:46:45 10° SSE 19:51:08 61° ENE 19:55:31 10° N
METEOR-M 4.0 19:49:53 10° SSE 19:55:13 82° ENE 20:00:36 10° N
SJ-6B 3.7 19:52:48 10° S 19:56:41 53° W 20:00:41 10° NNW
ALOS 2.6 19:58:30 30° ESE 20:00:13 42° ENE 20:04:36 10° N
FengYun 1-2 T 4.1 19:58:33 10° SSE 20:03:59 66° ENE 20:09:25 10° N
Cosmos 2279 Rocket 4.4 20:05:44 10° SSE 20:11:19 37° E 20:16:55 10° NNE
Cosmos 2151 3.9 20:08:25 10° N 20:11:13 32° NE 20:11:13 32° NE
ASTEX 1 3.2 20:07:49 10° N 20:12:43 75° E 20:17:35 10° S
Meteor 1-29 3.5 20:09:23 10° N 20:12:49 59° WNW 20:16:14 10° SSW
Nadezhda 4 Rocket 4.1 20:08:03 10° N 20:14:17 75° W 20:20:25 10° S
FENGYUN 3A 3.6 20:13:33 28° SE 20:16:19 62° ENE 20:21:39 10° N
GP-B 3.6 20:12:06 10° NNE 20:15:21 40° NE 20:15:21 40° NE
ISS -0.2 20:18:33 10° NNW 20:18:54 10° NNW 20:19:13 10° NNW
SEDSat Delta rocket 4.4 20:12:39 10° W 20:19:01 53° SSW 20:21:45 34° SE
Cosmos 1092 Rocket 3.9 20:19:08 10° N 20:25:19 85° W 20:31:27 10° S
GPS 2-04 Rocket1 3.3 20:25:18 10° WNW 20:28:01 46° NW 20:28:01 46° NW
CENTAUR R/B 3.6 20:25:05 10° SW 20:30:45 43° NW 20:37:05 10° NNE
Cosmos 2251 Rocket 3.4 20:26:36 10° SSW 20:31:49 86° WNW 20:37:05 10° NNE
Cosmos 494 Rocket 3.8 20:27:03 10° S 20:32:14 74° ESE 20:37:24 10° NNE
Cosmos 2026 Rocket 3.9 20:29:06 10° N 20:35:10 62° E 20:35:54 58° ESE
Cosmos 1634 Rocket 4.2 20:31:10 10° SSW 20:37:23 71° W 20:43:35 10° N
Cosmos 839 Rocket 4.0 20:31:16 10° NNW 20:38:29 73° ENE 20:39:42 58° ESE
H-2A R/B 4.3 20:41:19 30° NNW 20:41:19 30° NNW 20:43:20 10° NNW
Cosmos 1655 Rocket 3.9 20:33:44 10° N 20:39:53 61° E 20:39:53 61° E
Cosmos 1943 Rocket 3.1 20:40:43 10° N 20:44:22 35° NNE 20:44:22 35° NNE
OAO 3 Rocket 4.1 20:48:15 10° W 20:52:00 42° SW 20:52:00 42° SW
Cosmos 2369 Rocket 2.7 20:52:06 10° NNW 20:57:38 56° WSW 20:58:45 48° SSW
USA 215 4.4 21:13:01 16° NNE 21:17:37 37° NW 21:23:30 10° WSW
